Bedford, MA

6:25 AM EDT on April 28, 2017 (GMT -0400)
Hanscom

Weather History for KBED - October, 2013

Change the Weather History Date:

Tuesday, October 29, 2013

  Actual Average Record
Temperature  
Mean Temperature 36 °F -  
Max Temperature 48 °F 58 °F 75 °F (1971)
Min Temperature 23 °F 33 °F 23 °F (2013)
Degree Days  
Heating Degree Days 30    
Moisture  
Dew Point 21 °F    
Average Humidity 63    
Maximum Humidity 88    
Minimum Humidity 28    
Precipitation  
Precipitation 0.00 in - - ()
Sea Level Pressure  
Sea Level Pressure 30.44 in    
Wind  
Wind Speed 1 mph (NNW)    
Max Wind Speed 7 mph    
Max Gust Speed -    
Visibility 10 miles    
Events      
Averages and records for this station are not official NWS values.
T = Trace of Precipitation, MM = Missing Value Source: NWS Daily Summary

Daily Weather History Graph

Daily Weather History Graph

Search for Another Location

Airport or City:

Trip Planner

Search our weather history database for the weather conditions in past years. The results will help you decide how hot, cold, wet, or windy it might be!

Date:

Astronomy

Oct. 29, 2013 Rise Set
Actual Time 7:15 AM EDT 5:41 PM EDT
Civil Twilight 6:46 AM EDT 6:10 PM EDT
Nautical Twilight 6:13 AM EDT 6:44 PM EDT
Astronomical Twilight 5:40 AM EDT 7:16 PM EDT
Moon 1:56 AM EDT (10/29) 2:59 PM EDT (10/29)
Length of Visible Light 11h 24m
Length of Day
10h 26m
Waning Crescent, 25% of the Moon is Illuminated
Oct 29
Waning Crescent
Nov 3
New
Nov 10
First Quarter
Nov 17
Full
Nov 25
Last Quarter

Hourly Weather History & Observations

Time (EDT) Temp. Windchill Dew Point Humidity Pressure Visibility Wind Dir Wind Speed Gust Speed Precip Events Conditions
12:56 AM 30.0 °F - 21.9 °F 72% 30.40 in 10.0 mi Calm Calm - N/A   Clear
1:56 AM 28.0 °F - 21.9 °F 78% 30.41 in 10.0 mi Calm Calm - N/A   Clear
2:56 AM 27.0 °F - 21.9 °F 81% 30.42 in 10.0 mi Calm Calm - N/A   Clear
3:56 AM 25.0 °F - 21.0 °F 85% 30.43 in 10.0 mi Calm Calm - N/A   Clear
4:56 AM 24.1 °F - 21.0 °F 88% 30.44 in 10.0 mi Calm Calm - N/A   Clear
5:56 AM 25.0 °F - 21.0 °F 85% 30.46 in 10.0 mi Calm Calm - N/A   Clear
6:56 AM 23.0 °F - 19.9 °F 88% 30.46 in 10.0 mi Calm Calm - N/A   Scattered Clouds
7:56 AM 24.1 °F - 21.0 °F 88% 30.47 in 10.0 mi Calm Calm - N/A   Clear
8:56 AM 33.1 °F - 25.0 °F 72% 30.49 in 10.0 mi Calm Calm - N/A   Mostly Cloudy
9:56 AM 39.9 °F 35.8 °F 23.0 °F 51% 30.48 in 10.0 mi North 5.8 mph - N/A   Clear
10:56 AM 43.0 °F 38.8 °F 24.1 °F 47% 30.47 in 10.0 mi NW 6.9 mph - N/A   Mostly Cloudy
11:56 AM 45.0 °F 43.5 °F 27.0 °F 49% 30.45 in 10.0 mi Variable 3.5 mph - N/A   Scattered Clouds
12:56 PM 46.0 °F - 25.0 °F 44% 30.44 in 10.0 mi Calm Calm - N/A   Clear
1:56 PM 46.0 °F 44.8 °F 23.0 °F 40% 30.42 in 10.0 mi Variable 3.5 mph - N/A   Clear
2:56 PM 46.9 °F - 19.0 °F 33% 30.41 in 10.0 mi Variable 4.6 mph - N/A   Clear
3:56 PM 48.0 °F - 16.0 °F 28% 30.42 in 10.0 mi Calm Calm - N/A   Clear
4:56 PM 46.9 °F - 15.1 °F 28% 30.43 in 10.0 mi Calm Calm - N/A   Clear
5:56 PM 42.1 °F - 17.1 °F 37% 30.42 in 10.0 mi Calm Calm - N/A   Clear
6:56 PM 37.0 °F - 19.9 °F 50% 30.43 in 10.0 mi Calm Calm - N/A   Clear
7:56 PM 30.9 °F - 21.0 °F 67% 30.44 in 10.0 mi Calm Calm - N/A   Clear
8:56 PM 30.0 °F - 21.0 °F 69% 30.43 in 10.0 mi Calm Calm - N/A   Clear
9:56 PM 28.9 °F - 21.0 °F 72% 30.43 in 10.0 mi Calm Calm - N/A   Clear
10:56 PM 27.0 °F - 21.0 °F 78% 30.43 in 10.0 mi Calm Calm - N/A   Clear
11:56 PM 28.0 °F - 21.9 °F 78% 30.41 in 10.0 mi Calm Calm - N/A   Clear